Flag for China Weather past 2 weeks in Lanzhou, Gansu, China

Now
52 °F

Fog.


Feels Like: 52 °F
Forecast: 49 / 68 °F
Wind: 1 mph from Southwest

Location: Lanzhou / Zhongchuan

Current Time: May 29, 2015 at 2:52:39 AM

Latest Report: May 29, 2015 at 2:00 AM


Visibility: 1 mi

Pressure: 30.07 "Hg

Humidity: 82%

Dew point: 46 °F

Location of LanzhouLocation

Historic Weather in Lanzhou — Graph

°F

Lanzhou temperature yesterday

Maximum temperature yesterday: 57 °F (at 4:00 PM)
Minimum temperature yesterday: 52 °F (at 4:00 AM)
Average temperature yesterday: 53 °F

Past Weeks' High & Low Weather Summary

 TemperatureHumidityPressure
High81 °F (May 18, 5:00 PM)100% (May 22, 4:00 AM)30.27 "Hg (May 22, 4:00 AM)
Low41 °F (May 21, 3:00 AM)19% (May 17, 4:00 PM)29.77 "Hg (May 18, 5:00 PM)
Average59 °F53%30.02 "Hg
* Reported May 14 1:00 AM — May 29 1:00 AM, Lanzhou, Weather by CustomWeather, © 2015

Note: Actual official high and low records may vary slightly from our data, if they occured in-between our weather recording intervals... More about our weather records

Advertising

Lanzhou weather history for previous 24 hours

 ConditionsComfort  
Time TempWeatherWind HumidityBarometerVisibility
1:00 AM
Fri, May 29
52 °FFog.1 mph82%30.09 "Hg2 mi
12:00 AM54 °FFog.3 mph77%30.09 "Hg2 mi
11:00 PM
Thu, May 28
52 °FFog.No wind82%30.09 "Hg3 mi
10:00 PM52 °FPassing clouds.3 mph77%30.07 "Hg4 mi
9:00 PM54 °FScattered clouds.1 mph77%30.07 "HgN/A
8:00 PM55 °FScattered clouds.1 mph72%30.04 "HgN/A
7:00 PM55 °FScattered clouds.3 mph67%30.04 "HgN/A
6:00 PM57 °FScattered clouds.3 mph63%30.01 "HgN/A
5:00 PM55 °FScattered clouds.1 mph67%30.01 "HgN/A
4:00 PM57 °FScattered clouds.3 mph63%30.01 "HgN/A
3:00 PM54 °FScattered clouds.3 mph72%30.04 "HgN/A
2:00 PM54 °FMostly cloudy.3 mph72%30.04 "HgN/A
1:00 PM54 °FMore clouds than sun.3 mph72%30.04 "HgN/A
12:00 PM52 °FLight rain. More clouds than sun.6 mph82%30.07 "HgN/A
11:00 AM52 °FLight rain. More clouds than sun.8 mph77%30.07 "HgN/A
10:00 AM52 °FLight rain. More clouds than sun.3 mph77%30.07 "HgN/A
9:00 AM52 °FLight rain. Overcast.3 mph77%30.07 "HgN/A
8:00 AM52 °FLight rain. Overcast.3 mph77%30.07 "HgN/A
7:00 AM52 °FOvercast.6 mph77%30.04 "HgN/A
6:00 AM52 °FOvercast.6 mph77%30.04 "HgN/A
5:00 AM52 °FOvercast.3 mph77%30.01 "HgN/A
4:00 AM52 °FLight rain. Overcast.6 mph77%30.01 "HgN/A
3:00 AM54 °FOvercast.6 mph72%30.01 "HgN/A
2:00 AM54 °FOvercast.6 mph72%30.01 "HgN/A
Weather by CustomWeather, © 2015

See weather overviewHow to use our weather pages